Temperature
6 6 6 5 5 5 5 5 4 4 4 4 5 5 5 5 5 5 5 5 5 5 5 5 5 5 5 5 5 5 5 5 5 5 5 5 5 5
6 5 5 5 5 5 5 5 4 4 4 4 4 4 4 4 4 4 5 5 5 5 5 5 5 5 5 4 5 5 5 5 5 5 5 5 5 5
5 5 5 5 5 5 4 4 4 4 4 4 4 4 4 4 4 4 4 4 4 4 4 4 4 4 4 4 4 4 4 4 4 4 4 4 4 4
5 5 5 5 5 4 4 4 4 4 4 4 4 4 4 4 4 4 4 4 4 4 4 4 4 4 4 4 4 4 4 4 4 4 4 4 4 4
5 5 5 5 5 4 4 4 4 4 4 4 4 4 4 4 4 4 4 4 4 4 4 4 4 4 4 4 4 4 4 3 3 3 4 4 4 3
5 5 4 4 4 4 4 4 4 4 4 3 3 3 3 3 3 3 3 3 3 3 3 3 3 3 4 3 3 3 3 3 3 3 3 3 3 3
4 4 4 4 4 4 4 4 4 4 3 3 3 3 3 3 3 3 3 3 3 3 3 3 3 3 3 3 3 3 3 3 3 3 3 3 3 3
4 4 4 4 4 4 4 4 4 3 3 3 3 3 3 3 3 3 3 3 2 2 2 2 2 2 2 2 3 3 3 2 2 2 2 2 2 2
4 4 4 4 4 4 4 4 3 3 3 3 3 3 3 3 3 3 2 2 2 2 2 2 2 2 2 2 2 2 2 2 2 2 2 2 2 2
3 3 3 3 4 4 3 3 3 3 3 3 3 3 3 2 2 2 2 2 2 1 1 1 2 2 2 2 2 2 2 2 1 2 2 2 2 2
3 3 3 3 3 3 3 3 3 3 3 2 2 2 2 2 2 2 2 1 1 1 1 1 1 1 2 2 1 1 1 1 1 1 1 1 1 1
3 3 3 3 3 3 3 3 2 2 2 2 2 2 2 2 2 1 1 1 1 1 1 1 1 1 1 1 1 1 1 1 1 1 1 1 1 1
2 2 2 2 2 2 2 2 2 2 2 2 2 2 1 2 1 1 1 1 0 0 0 0 0 0 -0 0 1 0 0 0 1 1 1 0 0 0
2 2 2 2 2 2 2 2 2 2 1 1 1 1 1 1 1 1 1 1 0 0 0 -0 -0 -0 -0 -1 -0 -0 -0 -0 -0 0 0 0 0 0
1 2 2 2 2 2 2 1 1 1 1 1 1 1 1 1 1 1 1 1 1 0 0 -0 -0 -0 -1 -1 -1 -1 -1 -0 -0 -1 -1 -1 -1 -0
1 1 1 1 1 1 1 1 1 1 0 0 0 0 0 0 1 0 0 0 0 0 -0 -0 -0 -1 -1 -1 -1 -1 -1 -1 -1 -1 -1 -1 -1 -1
1 1 1 1 1 1 1 1 1 0 0 0 0 0 0 0 0 0 -0 -0 -0 -1 -0 -0 -1 -1 -1 -1 -1 -1 -2 -2 -2 -1 -1 -1 -1 -1
1 0 0 0 0 0 1 0 0 0 0 -0 -0 -0 -0 -0 -0 -0 -1 -1 -1 -1 -1 -1 -1 -1 -1 -1 -2 -2 -2 -2 -2 -2 -2 -1 -1 -1
0 -0 -0 -0 0 0 0 0 -0 -0 -0 -0 -1 -1 -1 -1 -1 -1 -1 -1 -1 -2 -2 -2 -2 -2 -2 -3 -2 -2 -2 -2 -2 -2 -2 -2 -1 -1
-0 -0 -0 -0 -0 -0 -0 -0 -0 -0 -0 -1 -1 -1 -1 -1 -1 -1 -1 -2 -2 -2 -2 -2 -2 -3 -3 -3 -3 -2 -2 -2 -2 -2 -2 -2 -1 -1
-0 -0 -1 -1 -1 -1 -1 -1 -1 -1 -1 -1 -1 -1 -1 -2 -2 -2 -2 -2 -2 -2 -2 -2 -3 -3 -3 -3 -3 -3 -2 -2 -3 -3 -2 -2 -2 -1
-1 -1 -1 -1 -1 -1 -1 -1 -1 -1 -1 -1 -1 -2 -2 -2 -2 -2 -2 -3 -3 -3 -3 -3 -3 -3 -3 -4 -4 -3 -3 -2 -2 -2 -2 -2 -3 -2
-1 -1 -1 -1 -1 -1 -1 -1 -1 -1 -1 -2 -2 -2 -2 -2 -2 -2 -3 -3 -3 -3 -3 -3 -3 -3 -3 -4 -4 -4 -3 -3 -2 -2 -2 -2 -2 -2
Wind_Speed
4 4 4 3 3 3 4 4 4 5 5 6 5 6 6 6 8 8 8 9 9 9 9 9 9 9 9 9 9 10 11 12 14 15 15 16 16 16
3 4 4 3 3 3 3 4 4 5 5 5 5 6 6 6 8 8 8 10 9 10 10 10 10 10 10 9 9 10 11 12 14 15 16 16 16 16
3 4 4 4 3 3 3 4 4 4 5 5 5 6 7 7 7 7 7 7 7 9 10 10 10 10 10 9 10 11 12 13 13 14 15 16 16 15
3 4 4 3 4 4 3 4 4 4 4 5 5 5 6 6 7 7 7 6 6 9 11 11 11 10 11 10 10 11 13 13 13 14 15 15 16 16
4 4 4 4 4 4 4 4 3 3 3 4 5 5 5 5 6 6 7 6 7 8 10 10 10 11 11 11 11 12 13 13 14 14 15 15 16 16
4 4 4 4 4 4 4 4 3 3 3 3 3 4 4 5 5 5 6 6 6 7 8 8 9 11 11 11 11 12 13 13 14 15 15 16 16 16
3 3 3 4 4 4 3 3 3 2 2 2 3 4 4 5 5 5 5 5 6 5 7 7 7 7 8 9 10 12 13 14 15 16 16 16 16 15
3 3 3 3 3 4 3 3 2 2 2 2 3 3 5 5 5 5 5 5 4 5 6 7 6 6 7 7 11 13 13 14 15 15 16 16 16 16
3 3 2 2 3 2 2 2 2 4 4 3 3 4 4 4 5 5 5 5 5 5 6 5 6 6 7 8 11 13 14 15 16 16 16 16 16 16
3 3 3 2 2 1 1 1 2 3 3 3 2 3 4 4 4 4 4 5 4 4 5 4 5 6 7 7 10 12 14 15 16 16 16 16 16 15
2 2 2 2 1 1 0 0 1 2 4 4 4 4 5 5 4 3 3 4 4 4 4 3 4 6 6 5 7 11 13 14 15 16 16 17 17 15
1 1 1 1 1 1 1 1 0 1 2 3 4 4 4 4 5 4 3 3 3 3 4 4 4 5 4 4 6 8 10 12 14 15 16 16 16 10
1 1 1 1 1 1 1 0 0 0 0 1 2 3 3 3 4 4 4 3 3 2 3 4 3 4 4 4 5 6 8 9 10 11 13 15 15 11
1 1 0 1 1 2 1 2 3 2 1 1 2 2 3 3 4 4 4 4 3 3 4 4 3 4 4 4 5 6 7 8 8 9 9 13 13 13
1 1 1 2 2 2 2 3 2 1 1 1 1 2 2 3 3 3 4 4 3 3 3 4 4 4 4 4 5 6 6 7 7 8 9 9 8 9
0 2 3 3 2 2 2 1 1 1 1 0 1 2 2 2 3 3 3 4 4 4 4 5 6 5 4 5 5 6 7 6 7 9 9 8 8 7
1 1 1 1 1 1 1 1 1 1 1 1 1 1 2 2 2 3 3 3 3 4 5 5 6 6 5 5 5 5 6 7 7 8 8 8 8 7
2 1 1 1 1 0 0 1 1 1 1 1 1 1 1 2 2 2 3 3 4 4 5 6 6 5 3 2 3 5 6 7 8 8 8 7 8 7
2 1 1 1 1 1 0 0 1 1 1 0 1 1 1 2 2 2 3 3 4 4 4 5 5 5 5 6 4 3 5 7 8 8 7 7 7 8
1 1 1 1 1 1 1 1 0 0 0 0 1 1 1 1 2 2 2 3 4 4 4 4 4 4 4 5 5 5 7 7 7 7 8 7 7 8
0 0 1 1 1 1 1 1 1 1 1 1 1 1 1 1 2 2 2 3 3 3 4 5 5 6 5 4 4 5 6 7 7 6 7 7 7 6
0 1 1 1 1 1 1 1 1 1 1 1 1 1 1 1 2 2 2 2 3 3 4 5 5 4 3 3 6 7 8 8 9 9 8 6 4 4
1 1 1 1 1 1 1 1 1 1 1 1 1 1 1 1 2 2 2 2 2 3 4 5 4 4 4 4 5 6 8 9 8 7 6 7 9 11
Wind_Direction
259 265 271 275 272 276 276 274 277 294 302 306 312 320 327 330 338 339 341 348 348 348 345 343 341 341 338 335 332 329 325 322 319 318 315 312 308 304
264 269 274 278 278 276 275 275 276 283 289 304 311 316 326 328 336 338 341 345 348 348 347 343 340 336 334 332 330 327 325 323 320 318 316 315 312 308
262 264 273 280 280 281 279 277 278 282 285 300 312 320 325 329 332 338 339 341 346 349 346 344 342 339 336 333 329 328 327 327 327 326 324 321 318 315
258 262 270 278 278 277 274 274 274 278 283 294 307 318 322 326 330 332 338 342 343 346 344 343 341 341 341 339 338 336 334 331 330 329 326 322 319 316
254 260 266 269 272 278 275 274 278 280 280 284 303 316 319 326 329 332 335 337 339 341 343 345 347 350 343 339 339 338 336 335 333 331 328 326 323 320
256 259 264 264 268 273 274 278 282 283 288 291 305 313 317 323 325 328 330 333 333 337 340 338 342 346 347 343 340 339 338 337 334 333 331 330 328 325
256 260 265 278 289 288 286 284 284 287 295 301 307 316 324 325 320 317 319 324 327 337 333 332 336 339 345 348 347 343 341 339 337 336 336 334 334 331
254 262 266 266 283 295 302 317 310 275 270 281 295 299 309 315 314 315 318 324 322 338 330 327 334 333 342 346 349 348 346 344 342 340 340 340 338 336
247 251 263 276 278 277 299 338 344 336 316 285 275 292 303 309 310 313 317 319 314 325 327 320 332 328 334 339 342 343 345 346 345 344 342 340 338 336
256 255 257 269 284 291 309 343 350 351 335 325 311 317 325 321 312 307 308 318 318 337 342 320 325 322 322 327 340 343 343 344 344 344 344 342 338 335
272 270 262 262 310 357 101 34 7 7 28 36 25 19 10 3 359 351 342 338 333 337 351 330 321 321 315 320 335 341 340 340 341 343 345 344 340 336
270 276 289 305 341 355 222 201 245 338 5 21 25 20 15 15 13 4 342 334 333 331 354 337 328 335 322 319 331 334 336 340 343 343 345 348 349 345
236 254 275 345 14 19 345 263 8 23 20 29 23 12 8 9 6 2 355 337 327 324 338 334 322 328 316 311 320 329 334 335 337 340 344 348 351 351
206 223 199 76 68 63 63 57 72 74 69 52 31 10 3 359 353 352 356 354 340 315 319 327 312 317 320 316 315 326 331 333 337 339 340 342 345 347
185 139 101 100 98 94 69 72 84 78 75 52 15 349 345 343 351 351 356 2 351 343 338 332 320 309 307 306 312 317 322 327 337 340 340 339 337 339
134 106 97 97 96 76 83 84 52 52 66 55 348 349 352 353 354 348 343 345 344 342 345 341 328 314 308 304 303 311 320 322 330 336 333 330 330 331
129 103 95 98 98 68 59 51 39 40 37 26 23 4 354 351 350 349 342 343 348 342 339 340 335 316 293 297 306 312 320 323 328 332 332 331 331 334
115 133 146 153 167 154 88 37 8 356 359 6 359 350 340 338 342 345 344 344 343 339 337 337 338 335 321 286 274 311 323 327 329 330 330 329 329 334
119 140 176 205 217 227 230 235 268 294 308 351 341 332 327 329 335 339 341 338 337 336 335 336 341 344 347 345 332 315 322 324 327 328 328 324 317 320
101 137 200 233 242 239 245 248 257 289 317 322 317 312 314 315 322 330 332 331 330 332 332 334 337 336 327 319 313 312 314 313 320 323 324 322 315 308
186 208 235 238 243 245 249 241 237 239 266 277 281 293 294 297 310 316 318 323 327 327 326 322 318 317 304 298 304 313 318 313 303 304 316 322 327 334
268 257 252 256 247 235 233 223 222 236 243 251 271 280 287 286 292 299 308 312 318 318 314 315 321 326 329 325 322 321 322 325 321 310 293 283 305 326
275 283 290 277 257 242 224 222 226 234 242 252 264 269 278 284 285 288 296 303 313 322 326 327 330 330 326 320 320 321 323 328 331 334 332 319 295 286
Height
1494 1493 1492 1491 1490 1489 1488 1487 1486 1482 1480 1477 1475 1473 1470 1468 1465 1462 1459 1456 1454 1451 1449 1447 1445 1443 1441 1440 1438 1436 1434 1432 1429 1426 1424 1421 1418 1416
1491 1490 1489 1488 1487 1486 1485 1484 1483 1481 1478 1476 1474 1472 1469 1467 1464 1461 1458 1455 1452 1450 1448 1445 1443 1441 1439 1437 1435 1433 1430 1428 1425 1422 1419 1416 1413 1411
1488 1487 1487 1486 1484 1483 1482 1481 1480 1479 1476 1474 1472 1470 1468 1465 1463 1460 1457 1454 1451 1449 1446 1444 1441 1439 1436 1434 1431 1429 1427 1424 1421 1418 1415 1412 1409 1407
1485 1485 1484 1483 1482 1481 1479 1478 1477 1476 1475 1472 1470 1468 1466 1464 1461 1459 1456 1453 1450 1447 1445 1442 1439 1436 1433 1431 1428 1426 1423 1420 1417 1414 1411 1408 1405 1402
1482 1482 1481 1480 1479 1478 1477 1476 1475 1474 1473 1471 1468 1467 1464 1462 1460 1457 1455 1452 1449 1446 1443 1440 1437 1434 1431 1428 1425 1423 1420 1417 1414 1411 1407 1404 1401 1398
1479 1479 1478 1477 1477 1476 1475 1474 1473 1471 1470 1469 1467 1465 1463 1461 1459 1456 1453 1450 1447 1444 1441 1438 1435 1432 1429 1425 1423 1420 1417 1414 1411 1407 1404 1400 1397 1394
1477 1476 1475 1475 1475 1474 1473 1472 1471 1469 1468 1467 1465 1463 1462 1459 1457 1454 1452 1449 1446 1443 1440 1436 1433 1430 1427 1423 1420 1417 1415 1411 1408 1404 1401 1397 1394 1391
1474 1473 1473 1473 1472 1472 1471 1470 1469 1468 1467 1465 1464 1462 1460 1459 1456 1454 1451 1447 1444 1442 1439 1435 1432 1429 1425 1422 1418 1415 1412 1409 1405 1402 1398 1395 1391 1388
1471 1471 1471 1470 1470 1469 1469 1468 1467 1466 1466 1465 1463 1461 1459 1457 1455 1453 1450 1447 1444 1441 1438 1434 1431 1427 1424 1420 1417 1414 1411 1407 1403 1400 1396 1393 1389 1386
1469 1469 1468 1468 1468 1467 1466 1466 1465 1464 1463 1463 1461 1460 1458 1456 1454 1452 1449 1446 1443 1440 1437 1434 1430 1427 1423 1420 1416 1413 1409 1406 1402 1398 1394 1391 1388 1384
1466 1466 1466 1466 1466 1465 1464 1463 1463 1462 1461 1461 1459 1458 1457 1455 1453 1451 1448 1445 1442 1439 1437 1433 1429 1426 1422 1419 1416 1412 1408 1405 1401 1397 1393 1389 1386 1383
1464 1463 1463 1463 1463 1463 1462 1462 1461 1460 1459 1459 1458 1456 1455 1454 1452 1450 1447 1445 1442 1439 1436 1433 1430 1426 1422 1419 1415 1411 1407 1404 1400 1396 1392 1388 1384 1381
1461 1461 1461 1461 1461 1461 1461 1460 1460 1459 1458 1457 1456 1455 1454 1453 1451 1449 1447 1444 1442 1439 1437 1433 1430 1427 1423 1419 1415 1411 1407 1403 1399 1395 1391 1387 1384 1380
1459 1459 1459 1459 1459 1459 1459 1459 1459 1458 1457 1456 1455 1454 1453 1451 1450 1448 1446 1444 1442 1440 1437 1434 1431 1427 1423 1419 1415 1411 1407 1403 1399 1395 1391 1387 1383 1380
1457 1457 1458 1458 1458 1458 1458 1457 1457 1456 1456 1455 1454 1453 1452 1451 1449 1448 1446 1443 1441 1439 1436 1433 1430 1427 1424 1420 1415 1411 1407 1403 1399 1395 1391 1388 1384 1380
1455 1455 1456 1456 1456 1456 1456 1456 1455 1455 1455 1454 1453 1452 1451 1450 1448 1446 1444 1442 1440 1438 1435 1433 1430 1427 1423 1419 1416 1412 1408 1404 1400 1396 1392 1388 1385 1381
1453 1453 1454 1454 1454 1454 1454 1454 1454 1454 1453 1453 1452 1451 1450 1449 1447 1445 1443 1441 1439 1436 1434 1432 1429 1426 1422 1419 1415 1412 1409 1405 1401 1397 1392 1388 1385 1382
1452 1451 1452 1452 1452 1452 1452 1452 1452 1452 1452 1451 1450 1449 1448 1447 1446 1444 1442 1440 1438 1436 1433 1430 1427 1424 1421 1418 1416 1412 1409 1405 1402 1398 1394 1389 1385 1382
1450 1450 1450 1450 1451 1451 1451 1450 1450 1450 1450 1449 1449 1448 1447 1446 1444 1443 1441 1439 1437 1435 1433 1430 1427 1424 1421 1418 1416 1414 1410 1406 1402 1398 1394 1390 1386 1383
1448 1448 1449 1449 1449 1449 1449 1449 1449 1448 1448 1448 1447 1446 1445 1444 1443 1442 1440 1438 1436 1434 1432 1430 1427 1424 1422 1420 1416 1413 1411 1406 1402 1398 1394 1391 1387 1384
1446 1447 1447 1447 1448 1448 1448 1447 1447 1447 1446 1446 1445 1445 1444 1443 1442 1441 1439 1437 1435 1433 1431 1429 1427 1425 1422 1419 1416 1412 1410 1407 1403 1399 1395 1391 1386 1383
1445 1445 1445 1446 1446 1446 1446 1445 1445 1445 1444 1444 1443 1443 1442 1441 1440 1439 1438 1436 1434 1433 1431 1429 1427 1424 1422 1419 1415 1412 1409 1406 1403 1400 1396 1393 1389 1384
1443 1444 1444 1443 1443 1443 1443 1443 1443 1443 1442 1442 1441 1441 1440 1440 1439 1438 1437 1435 1434 1432 1430 1428 1426 1424 1421 1418 1416 1412 1409 1406 1402 1399 1397 1394 1391 1388